Location: ???????
(55.4362°N, 38.1183°E)
Time: 18:14:48
(UTC+00:00)

Cosmos 1933 - Pass Details

Date: 17 June 2021
Orbit: 547 x 562 km, 82.5° (Epoch: 30 July)

Event Time Altitude Azimuth Distance (km) Brightness Sun altitude
Rises 23:28:35 0° 349° (N) 2,762 7.8 -7.1°
Reaches altitude 10° 23:30:47 10° 352° (N) 1,864 6.9 -7.0°
Maximum altitude 23:34:53 68° 76° (ENE) 610 3.7 -6.7°
Drops below altitude 10° 23:38:57 10° 160° (SSE) 1,854 5.6 -6.4°
Sets 23:41:08 0° 163° (SSE) 2,746 6.5 -6.3°
